Regional Weather Roundup
Issued by NWS Bismarck, ND

Home | Current Version | Previous Version | Text Only | Print | Product List | Glossary On
Versions: 1 2 3 4 5 6 7 8 9 10 11 12 13 14 15 16 17 18 19 20 21 22 23 24 25 26 27 28 29 30 31 32 33 34 35 36 37 38 39 40 41 42 43 44 45 46 47 48 49 50
000
ASUS43 KBIS 190220
RWRBIS

NWR BROADCAST TEXT
NATIONAL WEATHER SERVICE BISMARCK ND
900 PM CDT FRI APR 18 2014

NOTE: "FAIR" INDICATES FEW OR NO CLOUDS BELOW 12,000 FEET WITH NO
SIGNIFICANT WEATHER AND/OR OBSTRUCTIONS TO VISIBILITY.


CITY           SKY/WX    TMP DP  RH WIND       PRES   REMARKS
WILLISTON      CLOUDY    45  43  93 W6        29.65F
MINOT          CLOUDY    46  33  60 E22G28    29.72F
MINOT AFB      CLOUDY    45  35  66 SE12      29.73S
BISMARCK       CLOUDY    50  39  66 E18       29.61F
DICKINSON      LGT RAIN  50  41  71 NW25G35   29.64R
GARRISON         N/A     46  36  68 E20       29.67F
HETTINGER ARPT CLOUDY    53  40  61 NW17G30   29.64R
JAMESTOWN      CLOUDY    45  35  68 SE29G38   29.77F
CARRINGTON     FAIR      41  36  81 SE30G45   29.75F
CROSBY         FAIR      41  41 100 SE22G29   29.62F
HARVEY         FAIR      43  36  75 SE29G38   29.72F
HAZEN          CLOUDY    48  37  66 NE9       29.65F
LINTON         FAIR      61  41  48 SE23G35   29.57F
MANDAN         CLOUDY    50  37  62 E20       29.60F
OAKES          FAIR      45  37  76 E30G36    29.79F
RUGBY          FAIR      43  32  65 SE29G39   29.75S
STANLEY        MIX PCPN  41  41 100 SE12      29.68R
TIOGA          RAIN      45  45 100 NE5       29.73R
WATFORD CITY   MOCLDY    45  45 100 E8        29.64F
$$

CITY           SKY/WX    TMP DP  RH WIND       PRES   REMARKS
GRAND FORKS    CLOUDY    46  28  49 SE26G40   29.96F
GRAND FORKS AF CLOUDY    45  29  53 SE21G29   29.95F
DEVILS LAKE    CLOUDY    43  27  52 SE24G31   29.81F
FARGO          CLOUDY    44  28  53 SE29G39   29.95F
CANDO          CLOUDY    41  28  60 SE26G38   29.82F
CAVALIER       FAIR      43  32  65 E17G26    29.96F
GRAFTON        MOCLDY    45  32  61 SE16G23   29.96F
GWINNER        CLEAR     46  36  66 SE30G41   29.87F
LANGDON        MOCLDY    41  32  70 SE29G35   29.87F
ROLLA          CLOUDY    39  34  81 SE23G32   29.83F
WALHALLA         N/A     43  32  65 SE22G32   29.94F
$$

CITY           SKY/WX    TMP DP  RH WIND       PRES   REMARKS
ABERDEEN       MOCLDY    56  38  50 SE20G26   29.76F
MOBRIDGE       CLOUDY    64  39  39 S24       29.54S
BUFFALO          N/A     52  40  63 NW24      29.61R
RAPID CITY     CLOUDY    68  35  29 NW13      29.62R
GLASGOW        MOCLDY    43  37  79 NW13      29.72S
SIDNEY         MOCLDY    43  39  87 CALM      29.68R
WOLF POINT     LGT RAIN  45  40  82 NW25G38   29.69R
GLENDIVE       PTCLDY    43  39  87 NW9       29.70R
MILES CITY     LGT RAIN  53  41  63 W16G25    29.74R
BAKER          CLOUDY    48  42  80 CALM      29.68R
$$

CITY           SKY/WX    TMP DP  RH WIND       PRES   REMARKS
BILLINGS       MOCLDY    49  23  36 NW21      29.81R
GREAT FALLS    MOCLDY    44  17  33 W22G31    29.79R
REGINA         CLOUDY    37  36  93 SE16      29.65F
$$




USA.gov is the U.S. government's official web portal to all federal, state and local government web resources and services.